Location: Vassar Physics Lab
(41.6843°N, 73.8954°W)
Time: 03:05:02
(UTC-04:00)

Daily predictions for brighter satellites

Satellite Brightness Start Highest point End
(mag) Time Altitude Azimuth Time Altitude Azimuth Time Altitude Azimuth
Cosmos 1400 Rocket 4.2 00:05:57 30° ENE 00:05:57 30° ENE 00:08:59 10° NNE
Cosmos 304 Rocket 3.9 00:06:33 10° NNW 00:11:16 58° WSW 00:11:32 57° WSW
Cosmos 1455 3.4 00:09:38 10° NNW 00:12:57 33° W 00:12:57 33° W
Cosmos 1666 Rocket 3.5 00:14:40 76° WSW 00:14:49 78° W 00:19:18 10° N
Cosmos 1844 Rocket 3.2 00:16:14 41° ESE 00:16:20 41° ESE 00:21:33 10° NE
Cosmos 1943 4.3 00:14:52 10° NW 00:19:45 31° WSW 00:20:39 29° WSW
Cosmos 1862 Rocket 4.2 00:18:41 10° N 00:22:52 44° ENE 00:22:52 44° ENE
Cosmos 1933 Rocket 4.2 00:24:43 45° ENE 00:24:43 45° ENE 00:28:33 10° NNE
Cosmos 967 Rocket 4.4 00:18:11 10° NNW 00:24:35 85° ENE 00:26:22 51° SE
Tsikada Rocket 4.0 00:23:22 53° S 00:24:58 80° E 00:31:21 10° N
In-Cosmos 22 Rocket 4.4 00:27:03 48° ESE 00:27:37 50° E 00:32:58 10° NNE
CZ-2C R/B 3.3 00:28:02 58° S 00:29:10 76° WSW 00:34:56 10° NNW
Lacrosse 5 3.6 00:26:53 10° WNW 00:29:38 20° WSW 00:29:38 20° WSW
Cosmos 1633 Rocket 3.3 00:33:49 57° W 00:33:51 57° W 00:38:08 10° N
Cosmos 1892 4.2 00:41:17 29° ENE 00:41:17 29° ENE 00:44:00 10° NNE
Cosmos 2242 Rocket 3.8 00:42:50 10° NNW 00:47:18 64° W 00:47:18 64° W
CZ-2C R/B 3.2 00:49:26 10° N 00:54:35 49° WNW 00:55:49 40° WSW
Cosmos 968 Rocket 3.6 00:53:51 58° WSW 00:54:41 68° WNW 00:59:57 10° NNE
Cosmos 1470 Rocket 3.9 01:01:55 57° WNW 01:01:55 57° WNW 01:06:13 10° N
Cosmos 2278 Rocket 2.8 01:03:25 40° ESE 01:03:46 41° ESE 01:09:03 10° NE
Meteor 1-26 Rocket 4.1 00:58:25 10° N 01:03:59 82° E 01:04:49 65° SSE
BREEZE-M DEB 3.8 00:55:39 10° WSW 01:05:07 61° NNW 01:08:08 10° NE
H-2A R/B 3.8 01:03:11 10° NNE 01:07:06 32° E 01:07:06 32° E
Cosmos 1844 3.5 01:07:55 67° SSW 01:08:43 85° ESE 01:14:22 10° NNE
Cosmos 2084 Rocket 4.0 01:08:46 10° NW 01:11:30 45° NW 01:11:30 45° NW
Cosmos 1538 Rocket 3.9 01:07:27 10° NNW 01:12:50 74° WSW 01:13:18 69° SSW
SL-24 R/B - RUBIN 2 3.7 01:09:52 10° NW 01:15:22 83° WSW 01:15:38 79° S
Cosmos 1933 4.4 01:13:01 10° NNW 01:16:12 36° WNW 01:16:12 36° WNW
Cosmos 1869 Rocket 4.1 01:17:09 49° E 01:17:09 49° E 01:21:11 10° NNE
COSMOS 2406 3.3 01:13:00 10° NNW 01:18:34 58° WSW 01:19:01 56° SW
Okean 1-7 3.6 01:16:57 10° N 01:21:09 47° E 01:21:17 47° E
Cosmos 923 Rocket 4.3 01:16:17 10° NNW 01:21:27 60° ENE 01:22:36 48° ESE
Cosmos 2279 Rocket 4.1 01:16:17 10° N 01:22:33 70° E 01:24:20 48° SSE
ALOS 2 4.3 01:23:03 22° W 01:23:03 22° W 01:26:01 10° NW
CZ-4C R/B 2.7 01:22:54 36° WSW 01:24:47 53° NW 01:30:41 10° NNE
Cosmos 1689 Rocket 4.0 01:27:08 32° N 01:27:08 32° N 01:28:57 10° NNW
Cosmos 1461 4.0 01:27:08 34° ENE 01:27:08 34° ENE 01:29:49 10° NE
Meteor 2-10 Rocket 4.2 01:21:32 10° NNW 01:26:34 43° W 01:27:03 42° WSW
CZ-4B R/B 2.6 01:31:59 41° NNW 01:31:59 41° NNW 01:34:25 10° NNW
Cosmos 292 Rocket 4.5 01:26:44 10° NW 01:30:47 40° W 01:30:47 40° W
Cosmos 1315 Rocket 3.7 01:34:45 39° WNW 01:34:45 39° WNW 01:38:05 10° N
Landsat 5 3.6 01:36:20 66° WNW 01:36:20 66° WNW 01:40:11 10° NNW
Cosmos 2082 Rocket 3.5 01:31:56 10° N 01:37:03 34° ENE 01:41:12 15° ESE
Meteor 2-3 Rocket 3.9 01:36:55 52° SW 01:38:08 66° WNW 01:43:56 10° N
ATLAS 3B R/B 3.9 01:41:11 26° SE 01:43:14 30° ESE 01:49:20 10° NE
PSLV R/B 3.9 01:40:04 10° NNE 01:44:23 56° E 01:44:32 55° ESE
Cosmos 1825 2.9 01:46:16 48° ENE 01:46:16 48° ENE 01:49:35 10° NNE
Cosmos 2112 Rocket 4.1 01:46:22 10° NNW 01:51:40 74° ENE 01:53:06 48° SE
Cosmos 773 Rocket 4.5 01:48:03 10° NNW 01:53:00 43° WSW 01:53:04 43° WSW
Cosmos 44 4.1 01:53:36 34° ESE 01:53:36 34° ESE 01:57:37 10° NE
Cosmos 1782 2.8 01:50:13 10° N 01:54:05 80° NNE 01:54:05 80° NNE
Meteor 2-6 Rocket 4.2 01:51:58 10° N 01:57:32 80° E 01:59:08 49° SSE
Meteor 1-27 Rocket 4.4 01:52:23 10° N 01:58:13 54° ENE 02:00:55 31° SE
Cosmos 1408 2.9 01:59:38 62° NNE 01:59:38 62° NNE 02:02:43 10° N
Cosmos 1844 Rocket 4.1 01:57:52 21° W 02:00:20 29° NW 02:05:11 10° N
Timation 1 Rocket 4.2 01:59:59 52° SSW 02:01:34 88° WNW 02:07:35 10° NNE
Cosmos 44 Rocket 3.5 02:02:28 51° SE 02:02:49 52° ESE 02:07:28 10° NE
Cosmos 1680 Rocket 3.4 01:59:16 10° NNW 02:04:32 74° WSW 02:05:27 59° SSW
PSLV R/B 4.5 02:08:59 45° ESE 02:09:49 54° ENE 02:13:53 10° N
Cosmos 1346 Rocket 4.0 02:06:46 10° NNW 02:09:34 31° WNW 02:09:34 31° WNW
Helios 1A Rocket 3.1 02:06:48 10° NNE 02:10:53 59° E 02:11:08 58° ESE
Cosmos 1937 Rocket 4.3 02:09:42 34° SE 02:10:58 40° ESE 02:15:46 10° NE
Aureole 1 Rocket 4.4 02:04:15 10° NNW 02:11:06 85° WSW 02:15:28 31° SSE
Cosmos 1174 4.5 02:14:36 56° S 02:15:43 77° ESE 02:21:54 10° NNE
Resurs 1-4 Rocket 4.1 02:12:12 10° NE 02:16:05 20° E 02:19:00 13° SE
Cosmos 2221 Rocket 4.4 02:15:11 10° NNW 02:19:08 35° W 02:19:08 35° W
Cosmos 1092 Rocket 4.1 02:16:54 39° SSE 02:19:24 72° E 02:25:39 10° NNE
Cosmos 1898 Rocket 3.5 02:22:53 51° S 02:24:12 76° ESE 02:29:27 10° NNE
Cosmos 1607 3.8 02:24:03 44° SSW 02:26:12 86° ESE 02:32:31 10° NNE
SeaSat 1 2.5 02:26:04 32° SE 02:28:25 79° ENE 02:33:23 10° NNW
CZ-2D R/B 3.7 02:26:54 10° NE 02:31:28 28° E 02:34:35 17° SE
Cosmos 2026 Rocket 4.5 02:29:06 27° SSE 02:32:11 52° E 02:38:02 10° NNE
USA 238 DEB 4.3 02:31:18 30° SSE 02:34:13 46° ESE 02:40:50 10° NE
USA 238 4.3 02:31:24 30° SSE 02:34:20 46° ESE 02:40:56 10° NE
Cosmos 1606 3.9 02:33:01 10° NNW 02:36:01 30° WNW 02:36:01 30° WNW
ARIANE 5 R/B 4.1 02:33:35 10° NE 02:37:46 26° E 02:40:36 16° SE
SL-08 R/B 3.5 02:39:19 31° SSE 02:41:38 73° ENE 02:46:26 10° N
H-2A R/B 4.1 02:38:57 10° NNW 02:42:37 25° WNW 02:43:43 23° W
Cosmos 1340 2.5 02:39:10 10° NNW 02:42:57 78° W 02:43:13 72° SW
CBERS-1 4.1 02:40:11 10° NNE 02:45:20 73° ESE 02:47:21 37° S
Cosmos 2278 Rocket 3.5 02:45:15 21° W 02:47:57 30° NW 02:52:55 10° N
IRS-P3 4.1 02:49:26 10° NNE 02:54:48 80° WNW 02:57:02 36° SSW
Cosmos 1833 Rocket 2.7 02:50:50 10° NNW 02:56:23 60° WSW 02:58:54 32° S
CZ-3B DEB 4.1 02:43:32 10° NW 02:56:54 86° NE 03:08:12 10° SE
NPP 3.6 02:51:35 10° NNE 02:56:59 82° WNW 02:59:20 35° SSW
Cosmos 2369 Rocket 3.8 02:54:36 14° SSE 02:58:13 26° ESE 03:02:47 10° NE
Cosmos 1655 Rocket 4.2 02:55:49 24° S 02:59:41 69° E 03:05:54 10° NNE
GP-B 3.1 02:58:36 10° N 03:03:02 68° W 03:04:28 41° SSW
COSMOS 2487 2.7 03:00:03 10° NNW 03:03:26 48° W 03:03:26 48° W
SL-16 R/B 2.7 03:01:34 13° SSE 03:07:14 78° ENE 03:13:30 10° NNW
Cosmos 2297 4.3 03:04:57 27° WSW 03:07:39 45° WNW 03:13:06 10° NNE
UNK 4.0 03:04:26 19° SSE 03:07:47 69° ENE 03:12:28 10° N
Cosmos 2298 Rocket 4.4 03:07:34 31° SW 03:09:50 54° WNW 03:15:03 10° N
Cosmos 1437 3.9 03:08:03 10° N 03:11:09 41° ENE 03:12:58 21° SE
USA 267 3.9 03:05:58 10° ENE 03:12:05 41° SE 03:15:50 22° S
NOSS 3-2 (A) 4.3 03:11:19 20° S 03:14:55 40° ESE 03:20:52 10° NE
Cosmos 1975 Rocket 3.5 03:11:02 10° N 03:15:18 58° E 03:18:42 16° SSE
Cosmos 1812 3.2 03:12:08 10° N 03:15:58 58° E 03:18:29 20° SSE
Exosat Rocket 4.3 03:13:26 10° NW 03:18:52 49° WSW 03:24:04 18° S
ADEOS Rocket 3.5 03:12:32 10° N 03:20:13 79° WNW 03:25:04 23° SSW
Cosmos 1733 Rocket 4.3 03:19:01 23° W 03:20:13 26° WNW 03:23:55 10° NNW
Cosmos 2082 Rocket 2.9 03:16:03 10° NW 03:21:05 35° WSW 03:22:59 27° SW
Meteor 1-25 Rocket 4.4 03:19:09 20° S 03:23:03 69° E 03:28:39 10° NNE
Meteor 1-14 Rocket 4.3 03:20:21 24° S 03:24:08 88° WNW 03:30:09 10° N
USA 161 4.4 03:31:13 10° E 03:32:15 12° ENE 03:33:19 10° NE
ATLAS 3B R/B 3.1 03:28:26 21° SW 03:33:35 63° NW 03:40:42 10° NNE
Cosmos 44 4.5 03:32:00 17° W 03:34:43 29° NW 03:38:39 10° NNE
S3M 3.9 03:33:35 10° N 03:39:48 79° W 03:45:40 11° S
Sich 1 Rocket 4.4 03:38:43 24° SW 03:40:52 39° WNW 03:45:11 10° N
ADEOS 3.6 03:39:10 10° N 03:44:24 78° WNW 03:48:14 19° SSW
MOZ.5/SAFIR/RUBIN 5/SL-8 4.1 03:40:05 10° SSE 03:44:49 71° ENE 03:49:32 10° N
Okean 3 4.4 03:42:21 10° NNW 03:46:04 30° W 03:47:40 23° SW
Cosmos 1048 Rocket 4.3 03:41:16 10° NNW 03:46:40 72° ENE 03:52:01 10° SSE
Gbstr 26 Del rocket 4.3 03:45:07 16° S 03:47:00 23° SE 03:50:01 10° E
Resurs 1-4 Rocket 2.5 03:51:02 10° N 03:56:12 51° WNW 04:00:04 17° SW
Cosmos 1633 2.6 03:54:43 16° S 03:57:31 83° E 04:01:10 10° N
Okean 1 3.3 03:53:26 10° N 03:57:31 79° W 04:01:34 10° S
BREEZE M DEB (TANK) 4.5 04:00:48 10° NW 04:02:28 17° N 04:04:10 10° NE
MOS 1 Rocket 3.6 03:57:49 10° N 04:03:14 81° WNW 04:08:01 12° SSW
BREEZE-M DEB (TANK) 3.1 03:56:48 16° SW 04:03:17 61° SSE 04:06:20 10° ENE
BREEZE M DEB (TANK) 2.6 04:04:03 19° S 04:04:58 26° SE 04:07:06 10° ENE
BREEZE-M DEB (TANK) 2.3 04:04:03 19° WSW 04:05:53 76° NNW 04:12:18 10° ENE
SeaSat 1 4.2 04:05:49 13° WSW 04:06:25 13° WSW 04:08:44 10° WNW
BREEZE-M R/B 3.1 04:02:03 10° WNW 04:08:05 76° NNE 04:11:14 10° ESE
Okean 2 Rocket 3.5 04:05:26 17° SW 04:08:35 45° WNW 04:12:49 10° N
GRACE-1 3.7 04:07:29 14° S 04:09:39 82° W 04:12:22 10° N
GRACE-2 3.7 04:07:53 14° S 04:10:05 83° W 04:12:48 10° N
Meteor 1-11 Rocket 4.3 04:05:53 10° S 04:11:28 61° E 04:17:12 10° NNE
CZ-2D R/B 2.9 04:06:38 10° N 04:11:35 39° WNW 04:15:55 13° SW
Cosmos 1125 Rocket 3.8 04:11:41 14° SW 04:16:06 56° WNW 04:21:19 10° NNE
ARIANE 5 R/B 3.3 04:12:24 10° N 04:16:56 36° WNW 04:20:57 13° SW
Cosmos 1441 Rocket 3.3 04:13:38 10° N 04:17:40 89° E 04:21:39 10° S
CZ-2D R/B 3.8 04:16:27 10° N 04:20:47 60° WNW 04:25:07 10° SSW
UNKNOWN OBJECT B 3.4 04:23:24 10° N 04:26:53 38° WNW 04:30:08 11° SW
Cosmos 1300 Rocket 3.8 04:23:21 10° S 04:27:46 75° E 04:32:13 10° NNE
Okean O Rocket 2.4 04:34:18 10° NNE 04:38:35 51° E 04:42:52 10° S
Cosmos 1943 Rocket 2.2 04:33:43 10° SSW 04:39:23 83° WNW 04:45:02 10° NNE
Cosmos 2369 Rocket 2.8 04:36:35 10° SW 04:41:56 45° WNW 04:47:21 10° NNE
PSLV R/B 3.9 04:41:09 10° SW 04:44:16 41° SSE 04:47:26 10° E
Meteor 1-19 Rocket 4.3 04:39:49 10° NNW 04:45:20 60° W 04:50:54 10° S
Cosmos 405 Rocket 4.1 04:42:50 10° NW 04:46:01 23° W 04:49:08 10° SW
CZ-3B DEB 4.3 04:38:38 10° WNW 04:50:04 39° WSW 04:59:19 10° S
COSMOS 2455 3.0 04:45:09 10° SW 04:51:09 74° WNW 04:57:12 10° NNE
SL-16 R/B 4.1 04:47:45 10° SW 04:51:29 16° W 04:55:16 10° NW
ADEOS II 2.2 04:46:43 10° NNE 04:52:01 88° E 04:57:17 10° SSW
